Probability
0 0 0 0 1 0 0 0 0 0 0 0 1 2 3 3 4 5 6 6 5 6 6 8 11 12 12 11 9 5 3 3 4 5 5 5 5 5 3 1 0 0 0 0
0 0 0 0 1 0 0 0 0 0 0 0 1 3 3 3 3 4 5 4 4 6 6 8 10 11 11 10 7 4 2 2 3 4 3 3 3 3 2 1 0 0 0 0
0 0 0 0 0 0 0 0 0 0 0 0 1 3 3 3 2 2 2 2 3 5 6 8 9 10 9 7 5 3 2 1 2 2 2 2 1 1 1 0 0 0 0 0
0 0 0 0 0 0 0 0 0 0 0 0 0 2 2 2 1 1 0 0 1 3 6 8 9 8 6 4 4 3 3 2 1 1 2 2 1 1 1 1 0 0 0 0
0 0 0 0 0 0 0 0 0 0 0 0 0 1 2 1 0 0 0 0 0 1 4 6 6 4 4 3 4 4 4 2 1 0 1 1 1 1 1 2 1 1 0 0
0 0 0 0 0 0 0 0 0 0 0 0 0 0 1 1 0 0 0 0 0 0 1 2 2 3 4 4 4 5 3 2 1 0 0 0 0 0 1 2 3 2 1 0
0 0 0 0 0 0 0 0 0 0 0 0 0 0 0 0 0 0 0 0 0 0 0 0 1 4 5 5 5 5 3 1 0 0 0 0 0 0 1 2 2 2 2 1
0 0 0 0 0 0 0 0 0 0 0 0 0 0 0 0 0 0 0 0 0 0 0 0 1 4 6 6 6 5 3 2 1 0 0 0 0 0 0 1 1 1 1 1
0 0 0 0 0 0 0 0 0 0 0 0 0 0 0 0 0 0 0 0 0 0 0 0 1 4 6 6 6 6 4 3 2 1 0 0 0 0 0 0 0 0 0 1
0 0 0 0 0 0 0 0 0 0 0 0 0 0 0 0 0 0 0 0 0 0 0 0 1 2 4 6 6 6 5 3 2 1 0 0 0 0 0 0 0 0 0 0
0 0 0 0 0 0 0 0 0 0 0 0 0 0 0 0 0 0 0 0 0 1 0 0 0 1 2 3 5 5 4 2 1 0 0 0 0 0 0 0 0 0 0 0
0 0 0 0 0 0 0 0 0 0 0 0 0 0 0 0 0 0 0 0 0 0 0 0 0 0 0 1 2 3 2 1 0 1 2 1 1 1 0 0 0 0 0 0
0 0 0 0 0 0 0 0 0 0 0 0 0 0 0 0 0 0 0 0 0 0 0 0 0 0 0 0 0 1 1 0 0 1 2 2 2 1 0 0 0 0 0 1
0 0 0 0 0 0 0 0 0 0 0 0 0 0 0 0 0 0 0 0 0 0 0 0 0 0 0 0 0 0 0 0 0 1 1 1 1 1 0 0 0 1 2 2
0 0 0 0 0 0 0 0 0 0 0 0 0 0 0 0 0 0 0 0 0 0 0 0 0 0 0 0 0 0 0 0 0 0 0 0 0 0 0 0 1 2 3 3
0 0 0 0 0 0 0 0 0 0 0 0 0 0 0 0 0 0 0 0 0 0 0 0 0 0 0 0 0 0 0 0 0 0 0 0 0 0 1 1 2 2 3 3
0 0 0 0 0 0 0 0 0 0 0 0 0 0 0 0 0 0 0 0 0 0 0 0 0 0 0 0 0 0 0 0 0 0 0 0 0 1 1 1 1 1 1 2
0 0 0 0 0 0 0 0 0 0 0 0 0 0 0 0 0 0 0 0 0 0 0 0 0 0 0 0 0 0 0 0 0 0 0 0 0 1 1 1 0 0 1 2
0 0 0 0 0 0 0 0 0 0 0 0 0 0 0 0 0 0 0 0 0 0 0 0 0 0 0 0 0 0 0 0 0 0 0 0 0 0 0 0 0 0 0 1
0 0 0 0 0 0 0 0 0 0 0 0 0 0 0 0 0 0 0 0 0 0 0 0 0 0 0 0 0 0 0 0 0 0 0 0 0 0 0 0 0 0 0 0
0 0 0 0 0 0 0 0 0 0 0 0 0 0 0 0 0 0 0 0 0 0 0 0 0 0 0 0 0 0 0 0 0 0 0 0 0 0 0 0 0 0 0 0
0 0 0 0 0 0 0 0 0 0 0 0 0 0 0 0 0 0 0 0 0 0 0 0 0 0 0 0 0 0 0 0 0 0 0 0 0 0 0 0 0 0 0 0
0 0 0 0 0 0 0 0 0 0 0 0 0 0 0 0 0 0 0 0 0 0 0 0 0 0 0 0 0 0 0 0 0 0 0 0 0 0 0 0 0 0 0 0
0 0 0 0 0 0 0 0 0 0 0 0 0 0 0 0 0 0 0 0 0 0 0 0 0 0 0 0 0 0 0 0 0 0 0 0 0 0 0 0 0 0 0 0
0 0 0 0 0 0 0 0 0 0 0 0 0 0 0 0 0 0 0 0 0 0 0 0 0 0 0 0 0 0 0 0 0 0 0 0 0 0 0 0 0 0 0 0
0 0 0 0 0 0 0 0 0 0 0 0 0 0 0 0 0 0 0 0 0 0 0 0 0 0 0 0 0 0 0 0 0 0 0 0 0 0 0 0 0 0 0 0
Wind_Speed
2 3 1 3 3 2 2 3 2 4 3 1 3 4 6 4 1 2 2 2 2 2 2 2 2 2 1 1 1 0 0 1 0 1 1 1 1 1 1 1 2 3 3 4
3 1 4 2 2 2 2 2 2 3 3 1 2 6 5 3 3 3 3 2 1 2 3 3 3 3 2 1 1 1 1 1 1 1 1 1 1 1 2 2 2 3 4 4
3 2 1 2 1 3 2 4 3 2 4 3 2 5 3 1 1 0 1 1 0 1 3 3 3 2 2 2 1 2 2 2 2 1 0 1 1 1 1 1 2 2 3 4
0 1 1 2 1 2 3 3 3 2 1 2 1 4 6 2 1 1 1 1 1 2 2 2 3 3 3 3 3 2 2 2 2 1 1 1 1 2 3 2 2 3 3 4
1 0 2 2 2 2 2 0 1 1 1 1 1 2 7 1 3 3 3 3 2 2 2 2 3 3 3 3 3 2 2 2 2 2 2 2 2 2 2 2 2 3 3 4
1 0 1 1 0 1 2 2 3 2 2 2 3 3 7 3 4 3 3 2 2 2 2 3 3 3 3 3 3 3 2 3 3 2 2 3 3 3 2 3 3 3 2 3
3 1 1 1 2 2 2 4 3 3 2 5 1 3 8 4 4 4 4 3 3 2 2 3 4 4 4 5 4 4 3 4 3 3 3 4 4 4 5 4 4 3 3 3
1 2 1 1 2 2 1 4 4 3 3 4 2 6 7 3 3 1 1 1 2 2 3 3 3 3 4 4 4 4 4 4 4 4 4 4 4 3 4 5 4 4 4 4
2 2 2 1 1 3 3 2 2 4 1 2 5 6 7 1 2 1 0 1 3 3 3 3 3 3 4 4 5 4 4 5 5 4 4 5 4 4 4 5 4 4 4 4
3 1 3 2 2 2 2 4 3 3 2 3 5 5 5 3 4 2 1 3 4 4 4 4 4 4 4 4 5 5 4 5 5 5 4 4 4 4 4 4 5 5 5 5
2 3 2 2 1 2 2 2 3 3 2 3 4 7 4 5 4 3 3 3 4 5 5 5 5 4 4 4 5 5 5 5 5 5 5 5 5 4 4 4 5 5 4 5
1 3 1 3 2 0 2 3 4 3 3 3 3 8 3 2 2 1 3 4 5 5 5 4 4 4 4 5 5 6 5 5 5 5 5 5 4 4 4 4 5 5 5 5
3 4 2 3 2 1 0 1 2 3 3 3 4 8 2 2 2 2 3 5 5 6 6 5 4 5 5 6 6 6 6 6 6 5 5 4 4 4 4 4 5 5 5 5
4 3 4 6 4 3 3 3 3 4 3 4 8 9 7 6 5 6 5 5 5 5 5 5 5 5 6 6 6 7 7 6 6 5 5 4 4 5 5 4 5 5 5 5
3 2 2 3 3 2 4 6 6 7 7 8 8 8 10 7 5 5 5 5 5 6 6 6 6 6 6 6 7 7 7 7 6 5 4 4 5 4 4 4 4 4 4 4
2 2 0 2 2 3 6 8 8 9 7 8 8 12 8 4 3 4 5 5 6 6 6 6 7 7 7 7 7 8 7 7 6 5 4 4 4 4 4 4 4 3 3 3
2 3 1 2 3 3 8 8 9 6 5 6 9 9 3 4 5 5 5 5 6 6 6 7 7 7 7 7 7 7 7 7 5 5 4 4 4 4 4 4 3 3 3 2
5 4 2 0 2 6 7 1 4 5 4 6 6 5 4 6 6 5 5 4 6 6 6 7 6 7 7 7 7 7 6 5 4 4 4 4 4 4 3 3 2 2 2 2
4 5 3 2 2 9 6 2 4 4 6 5 7 7 5 5 5 5 3 3 5 6 5 6 6 6 6 6 6 6 6 4 4 5 5 4 3 3 3 2 2 2 1 1
3 3 4 3 3 7 5 1 2 3 5 4 5 5 3 2 3 6 4 4 5 5 4 5 5 5 6 6 5 5 6 5 5 5 5 4 3 2 2 2 2 2 1 0
3 2 3 4 5 10 5 2 3 3 7 2 4 4 3 4 6 6 6 5 5 5 5 5 5 5 5 6 5 5 5 5 5 5 4 4 3 2 2 1 1 1 0 1
8 7 6 5 5 11 3 5 7 7 2 1 3 3 4 5 6 6 6 6 6 6 5 5 5 6 5 5 4 6 6 6 5 5 4 3 2 2 1 1 1 1 1 2
7 8 7 10 9 4 4 6 4 2 2 3 3 3 3 4 5 6 6 6 6 6 5 5 5 6 5 4 4 5 6 6 5 4 4 3 3 1 1 1 1 1 1 1
4 3 3 5 8 6 6 5 4 3 4 4 3 3 3 5 6 6 6 6 5 5 5 5 5 5 6 5 5 5 5 5 4 4 3 3 2 2 2 2 1 1 1 1
6 6 4 7 7 5 6 8 7 5 4 4 4 3 4 5 6 6 6 6 5 5 5 4 4 5 6 5 5 5 4 3 3 3 3 3 2 2 2 2 2 2 1 1
7 9 9 9 7 6 6 4 4 5 5 5 4 4 4 5 6 5 6 5 5 5 4 4 5 5 5 5 5 5 4 3 2 2 2 2 2 2 2 2 3 4 3 4
Wind_Direction
44 77 203 217 196 184 152 169 226 264 283 285 238 263 277 285 259 245 242 236 246 276 300 326 339 350 11 44 43 336 278 283 184 199 221 233 243 242 238 243 233 206 200 188
54 295 241 207 161 136 157 186 259 295 328 321 264 281 279 265 242 222 210 214 231 341 341 347 2 7 15 13 356 339 312 271 239 234 229 235 248 242 239 237 235 220 207 197
156 239 203 146 121 145 196 201 221 262 335 2 330 301 277 266 227 161 179 161 111 320 310 321 346 348 352 353 329 323 310 300 283 281 19 19 4 336 293 276 263 243 216 205
133 275 172 151 224 172 234 212 182 202 51 317 28 284 283 274 277 253 274 296 298 293 293 311 336 334 331 318 317 306 297 294 289 258 209 197 243 256 254 254 259 262 233 214
264 197 146 171 232 181 209 177 136 184 143 315 309 228 280 285 243 243 239 235 251 276 278 300 315 307 313 321 317 309 311 302 298 271 235 227 252 263 277 275 258 256 245 224
247 233 177 195 8 181 150 70 48 45 77 264 225 197 271 235 232 249 243 247 257 277 299 309 321 326 325 334 334 330 315 308 308 299 265 240 245 254 265 269 259 255 251 233
357 348 355 68 58 27 90 100 38 357 351 251 200 214 251 251 243 227 233 252 268 271 307 325 333 330 329 334 333 332 325 309 307 297 285 258 249 243 240 245 244 250 248 242
79 303 314 52 148 162 166 139 159 200 232 282 287 240 257 264 273 242 224 252 286 304 306 308 308 308 313 318 324 326 322 313 307 295 285 275 260 253 253 251 248 243 244 239
152 257 338 33 77 135 133 143 152 126 92 286 270 285 298 281 317 337 23 349 308 295 301 302 306 310 313 316 312 308 307 307 305 299 293 278 266 256 256 257 255 252 252 248
150 189 313 327 57 29 120 139 107 119 151 273 289 273 259 257 263 274 310 302 299 305 313 313 310 305 306 305 306 303 292 291 294 293 285 289 274 263 260 262 260 259 260 252
120 132 324 1 186 185 122 113 112 114 154 175 270 273 241 217 212 219 253 276 290 302 302 303 305 300 301 309 308 302 300 303 301 293 285 280 278 270 267 264 263 264 267 257
117 118 254 267 269 231 165 169 152 159 220 193 210 270 294 219 210 223 277 293 300 297 297 301 302 304 310 312 311 310 303 299 296 290 283 277 276 276 270 270 270 268 266 263
133 116 57 349 342 8 94 165 154 130 134 177 203 265 317 358 324 298 294 304 310 313 315 318 317 313 312 310 310 309 306 299 296 293 285 277 274 272 271 274 277 275 269 270
113 125 179 204 222 184 224 216 180 155 184 220 230 258 284 293 300 305 304 303 307 309 311 315 314 310 310 311 311 310 308 306 302 296 284 277 276 273 270 271 274 275 273 272
101 165 230 266 283 238 239 235 210 207 208 216 243 251 270 269 268 279 292 301 308 311 314 312 309 309 312 316 317 313 311 310 307 300 287 282 282 280 277 278 277 274 276 282
96 149 162 297 297 260 265 249 228 232 230 238 262 272 271 281 283 285 288 293 298 299 302 305 308 311 312 312 312 311 311 311 309 303 291 293 292 291 290 285 282 278 285 293
141 137 134 276 313 332 274 236 207 206 208 196 227 249 296 300 287 278 279 282 282 289 295 300 301 302 303 304 303 303 301 303 302 299 296 297 299 302 300 295 289 287 293 293
148 134 139 282 21 249 249 186 178 192 234 220 241 268 277 276 285 271 255 254 274 286 292 295 297 301 304 306 309 310 308 306 303 304 303 303 308 304 304 301 296 296 293 281
155 143 137 142 251 279 287 224 172 186 264 225 228 258 282 311 316 290 247 247 264 274 281 288 294 298 303 307 313 316 315 312 309 308 305 303 300 299 302 300 304 312 301 300
86 107 130 149 205 248 257 204 177 116 284 244 205 239 271 3 315 289 312 300 290 293 296 299 304 306 305 310 318 322 320 319 308 309 303 299 296 294 291 293 309 316 295 292
130 125 171 187 230 263 253 192 130 168 250 254 202 221 207 213 236 279 307 306 301 297 298 304 307 305 303 313 323 320 316 310 308 310 307 311 309 295 292 325 339 349 49 87
172 170 186 168 209 253 187 144 185 218 244 223 227 221 225 249 274 290 298 302 305 306 305 307 306 305 309 317 322 318 311 311 319 322 320 325 328 329 4 28 14 43 77 88
199 191 186 196 217 246 183 206 225 211 241 245 236 246 240 266 279 288 292 293 296 297 298 299 298 303 310 312 311 303 305 318 325 326 327 330 335 350 31 49 47 49 72 90
235 180 188 250 260 253 245 248 253 236 237 247 248 254 245 260 275 284 288 291 293 296 295 299 301 302 305 308 306 296 306 319 325 326 329 345 5 21 32 30 40 57 71 85
206 169 199 251 267 286 261 236 241 249 250 258 261 252 243 250 270 276 282 285 286 289 292 291 289 288 293 304 305 305 315 328 335 341 350 359 10 35 39 34 34 40 30 52
189 183 189 227 222 212 248 241 226 227 241 243 253 272 264 246 260 272 276 278 281 285 291 294 293 293 297 304 305 311 322 330 339 340 344 353 6 28 47 57 46 45 51 46